Location: Lake Crest
(37.6062°N, 88.9176°W)
Time: 06:43:54
(UTC+00:00)

GPS 2-04 Rocket1 - Pass Details

Date: 15 December 2019
Orbit: 419 x 551 km, 35.6° (Epoch: 25 January)

Event Time Altitude Azimuth Distance (km) Brightness Sun altitude
Exits shadow 10:49:37 39° 139° (SE) 746 3.8 -25.6°
Drops below altitude 10° 10:52:48 10° 93° (E) 1,722 6.4 -25.0°
Sets 10:55:10 0° 86° (E) 2,633 7.5 -24.6°
